STARLINK-5134, 53976

Orbit data source: Space-Track

STARLINK-5134, 53976 is a payload satellite owned by SpaceX/Seattle (US) in LEO that was launched on Wed, 05 Oct 2022 UTC via an FALCON 9 launch vehicle from the Air Force Western Test Range (AFWTR). Payload-class satellites include a variety of spacecraft equipped with specific instruments for various scientific and technological missions. These include communications satellites like Starlink; space stations such as the ISS; scientific satellites like the Hubble; Earth observation satellites from companies like Planet Labs, Umbra, and HawkEye 360; GPS; miniature CubeSats for education and research; and military/defense satellites.

Loading next visibility...
Identifier
53976, 2022-125N
Orbit
LEO
Country
Flag of USUS
Related business
Manufacturer
SpaceX/Seattle
Mission
Operational Commercial Communications
Bus & Motor
STARLINK, Unknown motor
Mass
305 kg wet, ~290 kg dry
Launch date (UTC)
2022-10-05 (4 years ago)
Launch vehicle
FALCON 9
Launch site
Air Force Western Test Range (AFWTR)
Object type
Payload
Rocket body
Debris
Shape & HBR
Box + 1 Pan, 10.1 m
Radar Cross Section
13.562 m², Large (>1 m²)

Expand to show TLE details & history
Last TLE update: 2 days ago

TLE from 2 days ago
0 STARLINK-5134
1 53976U 22125N   26171.17843312  .00000884  00000-0  73661-4 0  9995
2 53976  53.1613 104.0362 0001611  92.1153 268.0023 15.08828945205072
Epoch: 2026-06-20T04:16Z
TLE epoch observation values (Epoch: 2026-06-20T04:16:56.621Z)
Latitude
-0.00002°
Longitude
131.40348°
Altitude
540.708 km
Speed
7.593 km/s
True Right ascension
06h 56m 08s
True Declination
0° 00' 00"
Sunlit
Object was in daylight at epoch
Visualization orbit readout
Latitude
Unknown
Longitude
Unknown
Altitude
Unknown
Speed
Unknown
Apparent Right ascension
Unknown
Apparent Declination
Unknown
Sunlit
N/A
Visualization observer readout
Local Sidereal Time
21:31:26
Azimuth
Unknown
Elevation
Unknown
Doppler factor
Unknown
Orbital elements
Apogee altitude
541.146 km
Perigee altitude
538.917 km
Semi-major axis
6,918.168 km
Eccentricity
0.00016
Inclination
53.1613°
RAAN
104.0362°
Arg. of periapsis
92.1153°
True anomaly
267.98385°
Mean anomaly
268.0023°
Eccentric anomaly
267.99308°
Mean motion
3.77187 °/min
Orbital period
95.44 mins
BSTAR
0.000073661
Loading maneuver chart data...
Computing Atmospheric mass density...
Loading historical data...
Loading historical data...
Loading historical data...
Loading historical data...
Loading historical data...
Loading historical data...
Loading historical data...

Documentation

Showing up to 5 results
|